Temperature
7 7 7 7 7 7 8 7 7 7 7 7 8 8 8 8 8 8 8 8 8 8 8 7 7 7 7 7 7 7 6 6 6 6 6 6 5 5
6 6 6 7 7 7 7 7 7 7 7 7 7 8 8 8 8 8 7 7 7 7 7 7 7 7 7 7 6 6 6 6 6 5 5 5 5 5
6 6 6 6 6 6 7 7 7 7 7 7 7 7 7 7 7 7 7 7 7 7 7 7 7 7 6 6 6 6 6 6 5 5 5 5 5 5
5 5 6 6 6 6 6 6 6 6 6 7 7 7 7 7 7 7 7 7 7 7 7 6 6 6 6 6 6 5 5 5 5 5 5 5 5 4
5 5 5 5 5 6 6 6 6 6 6 6 6 6 6 6 6 6 6 6 6 6 6 6 6 6 6 5 5 5 5 5 5 4 4 4 4 4
4 4 4 5 5 5 5 5 5 5 5 6 6 6 6 6 5 5 5 6 6 6 6 5 5 5 5 5 5 4 4 4 4 4 4 4 4 3
3 3 4 4 4 5 5 5 5 5 5 5 5 5 5 5 5 5 5 5 5 5 5 5 5 4 4 4 4 4 4 4 3 3 3 3 3 3
3 3 3 3 4 4 4 4 4 4 4 4 4 4 5 5 5 4 4 4 4 4 4 4 4 4 4 4 4 4 3 3 3 3 3 3 3 2
2 2 3 3 3 3 3 4 4 4 4 4 4 4 4 4 4 4 4 4 4 4 4 3 3 3 3 3 3 3 3 3 3 3 2 2 2 2
1 2 2 2 3 3 3 3 3 3 3 3 4 4 4 4 4 4 4 3 3 3 3 3 3 3 3 3 3 3 3 2 2 2 2 2 2 1
1 1 1 1 2 2 2 2 3 3 3 3 3 3 3 3 3 3 3 3 2 2 2 2 2 2 2 2 2 2 2 2 2 1 1 1 1 1
-0 0 0 1 1 1 1 2 2 2 2 2 2 2 2 2 2 2 2 2 2 2 2 2 2 1 1 1 1 1 1 1 1 1 1 1 0 0
-1 -1 -0 0 0 0 1 1 1 1 1 1 2 2 2 2 2 2 2 2 2 1 1 1 1 1 1 1 1 1 1 1 1 0 0 0 -0 -0
-1 -1 -1 -1 -0 -0 0 0 0 0 0 1 1 1 1 1 1 1 1 1 1 1 1 1 1 0 0 0 0 0 0 0 -0 -0 -0 -1 -1 -1
-2 -2 -1 -1 -1 -1 -0 -0 -0 -0 -0 -0 -0 -0 0 0 0 0 1 0 0 0 -0 -0 -0 -0 -0 -0 -0 -0 -1 -1 -1 -1 -1 -1 -1 -1
-3 -2 -2 -2 -2 -1 -1 -1 -1 -1 -1 -1 -1 -1 -1 -0 -0 -0 -0 -0 -0 -0 -1 -1 -1 -1 -1 -1 -1 -1 -1 -1 -2 -2 -2 -2 -2 -2
-4 -3 -3 -3 -2 -2 -2 -2 -2 -2 -2 -2 -1 -1 -1 -1 -1 -1 -1 -1 -1 -1 -1 -1 -1 -2 -2 -2 -2 -2 -2 -2 -2 -3 -3 -3 -3 -3
-4 -4 -4 -3 -3 -3 -3 -3 -3 -2 -2 -2 -2 -2 -2 -2 -2 -2 -2 -2 -2 -2 -2 -2 -2 -2 -2 -3 -2 -2 -3 -3 -3 -3 -3 -3 -3 -3
-5 -5 -4 -4 -4 -4 -3 -3 -3 -3 -3 -3 -3 -3 -3 -3 -3 -2 -2 -2 -3 -3 -3 -3 -3 -3 -3 -3 -3 -3 -3 -4 -4 -4 -4 -4 -4 -4
-6 -5 -5 -5 -4 -4 -4 -4 -4 -4 -4 -4 -3 -3 -3 -3 -3 -3 -3 -3 -3 -3 -3 -4 -4 -4 -4 -4 -4 -4 -4 -4 -4 -5 -5 -5 -5 -4
-6 -6 -5 -5 -5 -5 -5 -5 -4 -4 -4 -4 -4 -4 -4 -4 -4 -4 -4 -4 -4 -4 -4 -4 -4 -4 -5 -5 -5 -5 -5 -5 -5 -5 -5 -6 -5 -5
-6 -6 -6 -6 -5 -5 -5 -5 -5 -5 -5 -5 -5 -5 -5 -5 -5 -5 -5 -5 -5 -5 -5 -5 -5 -5 -5 -5 -5 -5 -5 -5 -5 -6 -6 -6 -6 -6
-7 -7 -6 -6 -6 -6 -6 -6 -6 -6 -6 -5 -5 -5 -5 -5 -5 -5 -5 -5 -5 -5 -5 -6 -6 -6 -6 -6 -6 -6 -6 -6 -6 -6 -6 -6 -6 -6
Wind_Speed
9 9 7 6 6 6 6 6 5 5 6 5 4 5 6 5 6 7 7 8 9 9 8 8 8 8 8 7 7 6 6 5 5 5 5 5 5 5
7 9 8 6 6 6 6 6 6 6 5 4 4 4 5 5 6 6 6 7 8 9 9 8 8 8 8 8 7 7 7 7 6 6 6 5 5 5
7 8 8 8 6 6 6 6 6 6 6 4 3 4 5 5 5 5 5 6 6 8 9 8 8 8 8 8 8 7 7 7 7 6 6 6 6 6
8 8 8 7 7 6 6 6 6 6 6 6 4 4 5 5 5 5 4 4 5 7 9 9 9 9 8 8 8 7 7 7 6 6 7 7 7 7
8 8 8 8 8 7 7 6 6 5 5 5 4 3 3 4 4 3 4 3 3 5 7 9 9 9 9 8 8 8 7 7 7 7 7 7 7 7
7 8 8 9 9 8 7 7 6 6 5 5 4 4 3 3 4 4 4 3 3 3 4 6 7 8 8 8 8 9 8 8 8 8 8 8 8 8
7 8 8 8 8 7 6 6 6 6 5 5 5 4 4 4 5 4 4 3 3 3 3 4 5 6 7 8 9 9 9 9 9 9 9 8 8 8
7 6 6 7 7 7 7 7 8 8 7 6 6 6 7 6 5 5 4 3 3 3 3 4 4 4 5 6 7 9 9 9 9 9 9 9 9 9
7 6 5 6 7 7 7 7 7 8 8 8 8 8 7 7 7 7 6 5 4 2 3 4 3 4 5 6 7 9 9 9 9 9 9 9 9 9
7 7 6 5 5 6 6 7 7 7 7 7 7 7 6 6 7 7 6 4 2 2 3 3 3 4 4 5 7 8 9 8 8 8 9 9 9 10
6 6 6 6 6 6 7 7 7 5 5 6 5 5 5 6 6 4 5 4 3 3 3 3 2 3 3 4 5 7 8 8 9 9 9 9 9 10
5 6 7 7 7 7 7 7 7 6 5 4 4 4 5 6 7 7 6 6 4 3 4 3 2 1 2 2 3 5 6 7 8 9 9 9 9 8
5 5 5 7 7 8 8 7 8 6 5 5 4 4 4 4 4 4 4 5 5 3 4 4 3 3 3 2 3 4 5 5 6 7 9 9 9 9
6 5 5 7 8 8 8 7 7 6 4 4 4 4 4 4 4 4 4 4 3 3 5 5 3 3 3 3 3 3 4 5 6 6 7 8 9 10
5 7 7 8 7 7 8 8 7 5 5 5 5 5 4 4 3 2 2 2 1 1 4 4 3 3 3 4 3 3 3 4 5 5 5 6 6 7
5 6 8 8 7 7 6 6 5 5 5 5 4 4 3 3 3 3 3 3 2 1 1 2 3 4 4 4 4 5 4 4 4 5 5 6 8 8
5 4 4 4 5 4 4 4 4 4 4 3 4 4 4 3 3 3 3 3 3 3 2 1 1 2 4 4 4 5 5 4 4 4 4 6 7 8
6 5 5 6 6 5 5 4 4 4 4 3 4 4 4 4 3 3 3 3 4 4 3 2 1 1 2 3 5 5 4 4 4 4 4 6 7 7
6 6 6 5 5 5 5 4 4 4 3 4 4 4 4 4 4 4 4 4 4 4 4 3 3 3 4 4 3 5 4 4 4 4 5 6 7 7
5 5 5 5 5 5 5 4 4 4 4 4 4 4 4 4 4 4 5 4 4 4 4 3 4 4 5 4 3 3 6 5 4 5 5 5 6 9
4 5 4 4 4 4 4 4 4 4 4 4 4 4 4 5 5 5 5 6 5 5 5 5 4 3 2 1 2 3 4 6 7 5 5 5 6 6
4 4 3 3 3 3 4 4 4 4 4 4 4 4 4 4 5 5 5 5 5 5 5 3 2 2 3 4 5 4 4 4 6 8 10 10 6 5
3 3 2 2 3 3 3 4 4 4 4 4 4 4 4 4 4 4 5 5 5 4 4 3 3 3 3 4 4 4 5 5 4 4 5 8 12 15
Wind_Direction
224 224 227 230 231 226 223 219 223 232 231 219 208 203 202 209 210 215 222 212 209 212 214 216 213 210 210 212 213 215 222 226 233 245 254 261 272 277
224 223 225 226 229 227 224 224 229 235 239 225 218 206 200 207 211 216 221 205 207 209 208 207 210 211 208 211 214 217 222 228 233 239 247 255 265 270
221 223 226 224 225 224 223 222 225 225 233 238 225 207 208 207 207 211 212 208 205 203 203 205 206 205 205 209 213 216 220 226 231 236 245 254 258 262
224 223 227 223 225 222 217 219 222 223 225 227 222 210 214 210 209 208 211 210 211 203 204 205 205 207 206 208 211 212 216 223 230 237 246 253 254 258
226 225 228 223 224 222 216 217 220 222 222 216 215 210 214 209 210 214 215 214 220 210 207 209 208 210 211 212 214 213 216 224 230 236 243 250 252 257
231 229 227 222 223 223 216 215 215 216 212 205 204 205 207 205 204 210 218 221 226 217 207 207 207 209 212 214 216 216 220 227 234 237 241 247 252 257
234 234 231 226 224 225 219 214 212 213 210 206 203 205 202 197 205 207 219 217 230 219 218 215 212 216 219 217 217 220 224 230 236 239 241 246 251 256
236 236 232 223 219 224 224 217 214 213 211 213 213 213 214 210 206 201 202 208 229 208 220 229 220 224 224 223 220 221 226 231 235 239 244 249 253 256
235 233 234 229 217 220 220 216 222 227 223 220 220 217 215 209 201 203 208 216 227 206 210 227 225 238 235 230 225 224 227 229 234 239 245 251 256 258
238 234 228 230 225 222 219 218 223 227 227 224 226 226 219 209 207 209 209 210 219 207 210 230 232 242 243 237 226 222 224 229 236 243 249 255 259 262
241 237 236 236 231 224 217 217 222 230 230 226 230 223 213 210 203 194 189 194 219 217 212 227 233 249 253 244 231 228 228 231 237 241 248 256 260 263
246 242 237 240 236 228 223 216 219 225 223 220 216 209 205 200 196 203 201 203 211 217 202 207 210 220 251 246 237 234 232 233 238 243 249 255 258 261
241 241 241 242 239 235 233 228 223 219 219 211 208 207 205 207 212 215 215 210 210 224 192 193 206 213 229 248 249 241 240 249 248 250 250 253 256 256
245 245 245 241 240 238 235 229 217 210 209 205 206 211 212 211 214 220 215 221 225 222 193 188 204 212 220 241 253 244 246 248 250 258 259 259 259 259
252 251 253 247 243 240 233 225 215 216 205 206 211 217 219 211 203 203 196 167 122 184 187 202 206 209 220 233 242 243 257 253 245 255 263 264 263 261
258 254 250 246 238 235 230 222 222 216 209 210 212 212 202 198 198 195 202 193 206 230 207 210 219 214 227 240 238 246 247 243 243 258 267 271 266 256
258 256 248 240 230 226 222 217 211 204 206 207 204 206 208 208 209 200 201 204 215 220 224 246 254 251 255 241 240 240 246 258 255 263 269 272 270 263
262 248 243 237 230 222 217 214 213 212 209 205 206 205 207 211 211 207 205 211 216 220 222 216 209 251 269 267 239 240 246 259 268 265 264 269 273 271
256 249 244 238 230 224 220 216 217 215 209 207 207 207 207 210 212 212 212 216 223 224 221 210 210 216 233 252 236 224 245 264 267 266 262 264 272 276
249 248 245 238 230 224 220 218 213 208 210 211 209 209 209 209 212 215 216 219 223 228 227 221 220 222 230 243 252 258 244 250 257 264 273 280 282 283
261 253 246 239 233 227 220 216 213 212 214 214 215 216 215 211 214 218 219 217 222 226 226 230 234 231 249 232 246 259 260 247 250 259 269 280 285 283
270 265 253 243 234 225 220 214 212 213 213 216 218 218 219 219 217 219 220 220 224 226 233 234 216 211 222 230 245 262 275 279 273 264 255 252 258 260
286 282 277 260 244 232 220 214 215 218 218 217 220 219 218 227 226 223 224 224 223 221 220 223 224 230 232 235 248 261 269 279 285 289 279 269 264 266
Height
1523 1525 1527 1528 1530 1532 1534 1535 1537 1536 1537 1537 1538 1539 1540 1541 1542 1542 1543 1544 1545 1545 1546 1546 1547 1547 1547 1547 1548 1547 1547 1547 1547 1547 1547 1546 1546 1545
1518 1520 1521 1523 1525 1527 1528 1530 1531 1533 1532 1533 1533 1534 1535 1537 1538 1539 1539 1540 1540 1541 1542 1542 1543 1543 1543 1544 1543 1543 1544 1543 1543 1543 1543 1543 1542 1541
1511 1514 1516 1518 1519 1521 1523 1524 1526 1528 1528 1528 1529 1530 1531 1532 1533 1534 1535 1535 1536 1536 1537 1538 1538 1539 1539 1539 1539 1539 1539 1539 1539 1539 1539 1539 1538 1538
1505 1508 1510 1512 1513 1515 1517 1519 1520 1522 1523 1523 1524 1525 1526 1528 1529 1530 1531 1531 1532 1532 1533 1533 1534 1534 1534 1535 1535 1535 1535 1535 1535 1535 1535 1535 1534 1533
1499 1501 1503 1505 1507 1509 1511 1513 1515 1516 1517 1518 1519 1520 1521 1523 1524 1525 1526 1526 1527 1527 1528 1528 1529 1529 1530 1530 1530 1531 1531 1531 1531 1531 1530 1530 1530 1529
1494 1495 1497 1499 1501 1503 1505 1507 1509 1510 1512 1513 1514 1515 1516 1517 1519 1520 1520 1521 1522 1522 1523 1523 1524 1524 1525 1525 1525 1526 1526 1526 1526 1526 1526 1525 1525 1524
1488 1489 1491 1493 1495 1497 1499 1501 1503 1505 1506 1507 1508 1510 1510 1512 1513 1514 1515 1516 1516 1517 1517 1518 1519 1519 1520 1520 1520 1520 1521 1521 1521 1521 1520 1520 1520 1519
1482 1483 1485 1487 1489 1491 1493 1495 1497 1499 1500 1502 1502 1504 1505 1507 1508 1509 1510 1511 1511 1513 1513 1513 1514 1514 1515 1515 1515 1515 1515 1515 1515 1515 1515 1515 1514 1514
1476 1478 1479 1481 1482 1484 1486 1488 1490 1492 1495 1496 1497 1498 1499 1501 1503 1504 1505 1506 1506 1507 1508 1508 1509 1509 1509 1510 1510 1510 1510 1510 1510 1510 1510 1510 1509 1508
1470 1472 1473 1474 1476 1478 1480 1482 1484 1486 1488 1490 1491 1493 1495 1496 1498 1499 1500 1501 1501 1502 1503 1503 1503 1504 1504 1504 1505 1505 1505 1505 1505 1505 1504 1504 1503 1503
1464 1466 1467 1468 1470 1472 1474 1476 1478 1479 1481 1484 1486 1488 1489 1491 1492 1494 1494 1495 1495 1496 1498 1498 1498 1498 1499 1499 1499 1500 1500 1500 1500 1499 1499 1499 1498 1497
1459 1460 1462 1463 1465 1466 1468 1470 1471 1473 1475 1477 1479 1481 1483 1484 1486 1487 1488 1489 1489 1490 1491 1493 1493 1493 1493 1494 1494 1494 1495 1495 1494 1494 1494 1493 1492 1491
1453 1454 1456 1458 1459 1461 1463 1464 1465 1467 1469 1471 1473 1475 1476 1478 1480 1481 1482 1483 1484 1484 1486 1487 1487 1488 1488 1488 1488 1489 1489 1489 1489 1488 1488 1487 1486 1485
1447 1449 1450 1452 1454 1456 1457 1458 1460 1462 1463 1465 1466 1468 1470 1471 1473 1475 1476 1478 1479 1479 1480 1481 1482 1482 1483 1482 1482 1482 1483 1483 1483 1482 1482 1481 1480 1479
1442 1443 1445 1446 1448 1450 1452 1453 1455 1456 1457 1458 1460 1462 1464 1466 1467 1469 1470 1472 1473 1474 1475 1475 1476 1477 1478 1477 1476 1476 1476 1476 1477 1476 1476 1475 1474 1473
1436 1438 1440 1441 1442 1444 1445 1447 1448 1450 1451 1452 1454 1456 1458 1460 1461 1462 1464 1466 1467 1468 1469 1470 1471 1472 1471 1472 1471 1470 1471 1471 1470 1470 1470 1469 1468 1467
1432 1433 1434 1435 1436 1437 1439 1441 1442 1444 1445 1447 1448 1450 1452 1454 1455 1457 1458 1460 1461 1461 1462 1464 1465 1465 1466 1466 1466 1465 1465 1465 1465 1464 1464 1462 1461 1461
1428 1428 1428 1429 1431 1432 1433 1434 1436 1438 1439 1441 1443 1445 1446 1448 1449 1451 1453 1454 1455 1455 1457 1458 1459 1459 1460 1460 1461 1460 1460 1460 1459 1459 1458 1456 1454 1454
1423 1422 1423 1424 1425 1427 1428 1429 1431 1432 1434 1436 1438 1439 1441 1443 1444 1446 1447 1448 1449 1450 1451 1452 1453 1453 1454 1454 1454 1455 1455 1454 1453 1453 1452 1451 1448 1447
1417 1417 1418 1419 1420 1422 1423 1424 1426 1427 1429 1431 1432 1434 1436 1437 1439 1440 1441 1443 1444 1445 1446 1447 1447 1448 1448 1448 1448 1449 1450 1449 1448 1446 1446 1445 1443 1441
1412 1412 1413 1414 1415 1417 1418 1420 1421 1422 1424 1426 1427 1429 1430 1432 1433 1435 1436 1437 1439 1439 1440 1441 1442 1443 1443 1443 1443 1442 1443 1443 1442 1441 1440 1438 1436 1434
1408 1408 1408 1409 1410 1412 1413 1415 1416 1418 1419 1421 1422 1424 1425 1427 1428 1430 1431 1432 1433 1433 1434 1435 1437 1437 1438 1438 1437 1436 1436 1437 1437 1436 1435 1434 1431 1428
1404 1404 1404 1405 1406 1407 1409 1410 1411 1413 1414 1416 1417 1418 1420 1421 1423 1424 1425 1427 1428 1428 1429 1430 1431 1432 1432 1432 1432 1431 1431 1430 1430 1429 1429 1428 1427 1425